Theta_e
314 314 314 313 312 309 311 316 310 325 325 309 309 305 308 307 312 315 313 312 312 310 312 312 313 314 319 325 325 319 323 319 314 315 323 322 319 315 314 309 310 313 311 309
314 314 313 313 311 310 310 312 316 325 322 305 306 309 309 311 310 311 311 309 310 313 311 308 313 316 322 325 323 320 323 318 311 313 317 318 314 316 316 316 314 311 308 310
313 313 313 312 312 311 310 314 309 316 317 314 309 308 308 308 313 311 312 310 311 310 310 313 312 314 317 320 322 327 321 314 312 308 314 317 314 315 315 313 309 309 309 312
314 314 313 312 312 311 311 316 312 317 311 310 309 310 311 309 308 312 312 309 309 309 307 309 310 314 316 317 319 319 317 310 313 314 316 316 313 314 314 312 312 308 310 312
314 314 313 313 311 309 315 310 309 313 311 316 313 307 309 308 310 311 309 309 310 311 308 310 310 313 314 314 317 314 315 311 311 309 313 313 311 313 314 314 314 313 313 313
314 314 314 313 311 310 313 314 313 311 307 309 309 310 311 310 312 314 315 314 313 310 312 316 315 317 317 317 316 314 313 311 310 305 310 311 307 312 312 313 315 314 310 315
313 313 313 313 312 310 312 315 312 308 305 308 309 311 312 311 313 312 315 316 314 317 322 320 318 316 316 316 317 318 316 316 314 308 311 301 311 317 316 314 315 316 317 319
312 313 313 313 313 311 312 316 313 308 305 309 309 309 311 314 315 314 314 317 318 321 317 312 309 309 310 312 315 316 317 315 311 306 306 310 312 315 314 314 313 318 317 319
312 312 313 313 313 311 312 314 318 311 306 308 310 308 309 307 310 311 315 320 322 319 314 310 306 301 305 304 308 314 314 316 310 309 304 301 313 316 320 319 309 321 320 320
312 312 312 312 313 311 312 314 320 313 306 309 311 308 307 310 309 309 314 316 315 318 310 306 305 303 309 303 305 308 308 311 307 307 305 308 316 319 320 307 312 323 323 325
312 312 312 313 313 313 312 313 319 313 307 309 311 313 310 310 310 309 313 314 314 313 308 307 308 307 309 309 312 311 309 309 306 310 306 302 322 320 313 324 325 324 324 331
312 312 313 313 313 313 312 311 318 319 311 310 314 315 316 315 314 310 313 312 316 317 313 313 313 310 312 312 306 317 309 313 311 311 309 321 322 322 325 325 324 324 326 331
312 312 313 313 313 312 311 309 313 312 309 311 313 312 319 320 317 317 309 314 317 317 319 314 316 314 315 308 310 313 316 319 313 314 317 317 320 324 324 325 324 327 330 329
312 312 312 312 313 312 311 308 313 311 311 305 313 321 320 325 322 317 314 313 315 315 315 312 312 311 317 312 313 312 314 317 316 315 318 319 319 322 322 324 329 328 328 327
312 312 311 312 311 311 311 311 313 313 309 306 309 316 320 322 322 319 316 312 311 312 310 311 310 314 314 315 314 311 316 314 310 309 318 319 320 323 325 324 327 328 326 326
312 311 310 311 310 310 311 311 316 316 315 308 306 318 318 319 321 318 317 314 311 311 310 311 313 317 314 309 307 316 316 317 316 314 317 320 323 325 326 326 325 326 327 329
311 310 310 309 310 310 310 309 312 314 317 309 308 312 315 321 320 319 317 316 312 311 310 310 311 312 313 308 305 312 312 314 316 318 320 318 320 319 324 327 327 326 328 331
311 310 310 310 310 309 310 315 311 312 312 312 307 309 313 320 315 314 320 315 314 314 312 313 310 312 313 308 314 315 316 317 317 318 318 317 318 322 322 323 327 326 323 326
309 310 310 312 310 313 313 314 313 315 312 307 310 307 308 318 315 317 317 317 310 317 312 312 314 311 308 314 316 317 318 317 317 319 318 318 317 319 320 322 324 325 325 327
309 312 311 310 311 313 313 313 310 309 311 312 308 313 309 316 313 314 313 314 310 308 311 316 311 309 315 316 319 322 321 323 321 317 317 317 319 321 322 326 326 324 324 327
307 302 303 308 315 314 312 308 306 309 305 310 310 310 310 317 311 311 316 311 312 304 309 310 308 308 315 320 322 323 322 322 321 321 321 322 324 322 324 322 321 325 325 323
303 303 306 310 310 308 304 303 307 305 304 312 310 311 313 316 319 314 316 310 313 304 315 310 305 318 323 321 321 322 321 321 321 322 323 326 326 325 325 325 323 325 324 329
308 303 300 303 306 294 298 297 301 303 311 315 315 313 314 317 317 312 312 306 305 314 308 304 313 324 324 323 322 321 321 323 325 325 325 326 325 325 324 323 324 324 324 326
301 301 292 298 298 301 302 303 308 313 316 317 319 316 315 316 313 313 306 309 311 303 302 304 319 326 324 325 324 323 322 323 322 323 323 323 322 322 323 322 323 322 323 326
299 303 296 300 305 308 308 309 311 315 316 318 316 312 313 311 308 310 307 305 302 303 304 314 325 327 327 326 325 323 323 322 322 321 321 321 321 321 322 323 323 324 324 324
300 302 302 306 305 305 307 308 308 314 318 316 314 307 306 306 307 305 303 302 301 309 316 324 328 327 326 325 325 325 323 321 320 319 319 319 320 320 321 322 323 323 324 324
299 300 306 305 305 305 308 309 307 314 310 308 309 304 303 310 304 303 308 306 312 316 320 325 329 327 327 326 325 322 321 321 320 320 321 321 323 322 320 319 320 322 323 325
Wind_Speed
21 22 22 23 24 29 12 7 7 11 11 10 10 14 22 22 22 16 11 13 15 14 17 13 20 20 23 20 23 21 21 15 12 15 22 16 17 13 12 12 13 15 15 14
21 22 22 22 20 16 10 7 9 9 10 10 13 19 23 24 23 19 10 11 17 15 15 13 15 13 20 14 14 12 17 17 16 16 17 17 19 18 19 23 19 16 14 6
21 22 23 23 22 17 8 7 6 8 9 13 20 17 19 21 22 11 13 17 16 19 11 14 9 13 10 5 6 8 2 12 14 14 17 14 19 21 17 17 12 14 14 14
20 21 23 25 27 25 5 6 8 17 5 13 17 20 21 16 18 15 16 17 17 14 13 14 16 14 12 9 3 5 7 15 18 19 17 12 14 19 23 17 17 18 16 14
21 21 21 24 29 37 6 8 8 13 14 19 14 10 18 20 16 17 15 17 15 18 17 18 16 17 14 13 12 10 12 14 16 20 19 20 21 12 16 10 8 11 12 13
20 20 21 21 21 24 7 10 12 9 10 15 12 11 16 17 16 19 13 12 15 17 16 9 16 19 18 14 14 13 14 12 12 15 19 18 15 12 11 16 10 8 11 8
19 20 20 19 17 13 8 11 9 9 12 13 14 14 13 14 15 11 18 11 12 11 12 13 13 15 16 16 14 11 15 14 11 13 14 19 11 18 14 4 3 9 11 10
19 19 18 19 17 13 10 11 9 8 10 15 17 12 12 12 13 13 13 5 3 10 4 9 12 13 17 19 17 17 11 14 12 13 13 13 13 14 3 9 8 6 8 9
19 19 18 17 17 15 10 11 5 8 9 1 19 16 10 12 11 12 14 13 15 9 9 11 15 15 17 20 22 21 19 15 12 11 13 18 14 7 7 4 5 11 11 10
19 19 18 17 17 15 10 8 13 7 11 17 14 10 9 9 12 12 11 15 15 11 10 12 14 15 19 18 21 18 17 14 14 11 14 16 13 9 5 7 2 7 8 12
19 19 18 16 16 15 10 10 10 5 8 19 23 18 15 13 9 9 14 8 3 8 12 11 13 13 13 17 16 17 17 13 11 13 19 16 12 9 5 7 5 6 5 17
18 19 18 16 15 13 10 8 11 10 9 16 24 23 23 22 19 11 9 13 8 6 6 5 8 11 10 3 6 9 4 3 1 5 4 5 8 7 9 5 7 4 2 16
19 19 19 17 14 12 7 7 9 10 10 14 16 17 22 20 20 16 10 7 8 5 7 6 6 8 7 3 6 1 2 5 4 5 5 3 3 5 4 5 7 5 10 12
19 19 19 18 15 14 10 6 7 7 8 7 6 5 5 9 11 15 16 16 12 9 7 7 7 7 5 6 7 9 5 6 7 6 5 6 10 7 4 4 8 12 10 9
20 19 20 18 17 16 11 9 9 8 6 7 10 21 17 10 9 9 11 13 12 7 6 6 7 6 8 6 5 8 9 8 3 7 8 5 7 4 6 6 7 9 10 10
21 21 21 19 17 13 6 4 6 8 9 7 6 9 7 3 4 7 8 8 9 8 8 6 7 13 1 4 6 9 13 14 15 9 11 7 5 4 5 6 10 9 14 14
22 22 20 20 17 7 6 5 3 1 7 5 7 6 7 9 8 7 7 9 6 6 8 8 9 6 2 4 9 11 15 14 10 11 5 5 4 7 6 13 15 13 14 11
23 22 18 17 11 6 7 7 8 6 6 5 6 6 7 9 6 6 5 6 7 7 8 8 9 8 5 5 7 9 9 8 10 12 10 8 6 8 13 8 15 15 15 10
25 21 14 4 6 3 3 6 4 5 5 5 7 8 4 6 9 6 6 4 6 4 7 8 5 7 6 9 10 8 7 5 4 6 8 11 10 11 16 11 13 10 13 13
25 6 5 3 4 7 4 4 5 5 5 6 7 8 7 6 6 6 5 6 6 5 8 7 8 9 11 11 8 7 6 7 4 3 6 10 8 12 7 4 13 10 16 21
7 5 4 6 6 5 5 4 6 6 5 6 7 11 10 3 2 3 3 4 3 6 6 4 5 7 5 3 9 6 1 3 8 6 7 7 9 7 10 10 19 9 14 6
4 6 7 6 5 5 5 4 4 5 5 3 8 8 9 4 4 3 4 3 2 3 2 2 4 3 4 3 6 3 4 6 7 5 5 11 12 11 7 12 11 11 8 10
2 3 3 4 3 1 7 7 5 4 4 1 1 2 2 4 4 5 4 10 5 6 3 3 5 8 5 3 4 4 3 6 9 11 11 8 8 4 4 3 1 3 4 5
3 4 4 4 4 6 4 6 3 3 2 4 2 2 0 2 2 2 2 3 4 5 7 3 7 6 5 5 5 5 6 6 7 5 5 5 4 5 6 6 6 7 8 6
4 6 5 8 4 4 8 7 4 4 5 2 5 3 4 5 3 4 2 4 5 3 2 4 7 8 6 7 8 9 9 8 6 5 6 7 6 6 7 8 9 7 5 6
4 7 8 8 8 5 6 4 6 4 3 4 3 2 4 3 3 6 5 4 2 3 3 4 7 10 9 7 6 6 5 5 4 3 2 2 3 5 5 7 8 8 10 6
4 5 6 7 8 9 1 5 5 8 4 2 3 5 3 3 4 4 7 4 1 3 8 7 7 9 8 7 6 6 4 3 2 2 1 3 4 4 5 6 6 7 8 6
Wind_Direction
339 338 339 340 339 335 333 287 257 144 164 199 220 227 238 260 263 262 209 268 287 304 301 283 225 227 220 211 220 220 228 249 207 176 251 192 221 232 242 254 272 273 292 301
340 339 340 341 345 357 315 276 280 153 196 228 227 228 245 253 252 248 241 237 262 280 286 299 294 255 233 241 217 242 225 217 243 241 249 190 205 206 227 244 257 244 262 253
342 341 340 339 339 342 310 273 252 166 203 245 266 255 240 233 243 273 244 255 252 249 246 267 278 275 282 9 120 24 1 274 265 241 237 205 236 207 214 246 264 277 274 278
341 342 342 340 337 335 277 243 270 11 231 208 234 253 267 264 227 214 236 255 262 251 254 256 251 251 265 153 78 283 240 252 276 280 265 229 271 257 205 218 245 255 268 289
343 343 344 345 343 333 227 330 341 341 300 296 299 255 246 268 277 228 204 239 242 234 249 257 258 256 232 265 169 218 244 253 262 278 281 275 279 226 275 277 270 290 305 294
342 344 344 348 355 343 323 357 338 300 294 291 262 260 270 241 261 278 267 227 226 235 257 305 263 276 295 273 207 187 226 236 227 245 252 266 270 272 229 262 273 283 274 315
343 344 344 345 353 358 321 300 316 295 290 280 275 270 269 264 259 282 264 234 256 294 347 317 288 282 287 282 288 221 193 226 240 241 239 240 256 272 280 160 273 290 296 306
339 342 342 344 343 346 323 295 306 308 299 303 296 317 305 315 301 303 276 308 267 282 291 270 254 261 260 261 268 277 270 199 217 249 254 268 265 261 232 211 242 311 338 0
337 337 341 341 338 342 322 300 342 302 290 345 344 326 310 304 284 253 265 267 261 281 267 252 235 237 238 226 239 250 255 262 275 261 246 243 250 70 47 42 260 24 14 352
336 335 336 338 337 338 325 282 303 302 288 273 315 295 328 321 316 291 280 222 217 218 249 250 245 233 241 238 228 216 230 238 244 242 262 260 284 58 74 249 57 21 27 33
335 333 332 334 335 339 336 304 284 317 298 293 276 283 283 279 255 269 360 288 175 273 227 250 254 253 241 232 245 226 215 220 215 236 252 252 26 356 1 49 61 46 20 95
330 328 327 330 331 329 337 284 337 319 277 281 303 288 277 272 283 295 294 315 310 352 304 259 285 269 266 266 266 157 190 65 288 322 13 17 15 90 30 14 352 5 47 113
324 322 322 324 323 313 303 294 316 294 265 267 246 247 244 224 232 249 262 270 349 350 352 311 306 312 332 26 284 281 302 338 159 221 242 349 50 50 20 10 289 166 109 96
317 317 317 317 315 300 283 271 290 305 276 276 304 135 200 194 219 214 231 265 289 316 310 289 288 296 339 317 333 320 51 30 10 360 322 278 271 242 174 119 90 95 97 120
312 313 315 313 311 302 284 258 250 247 273 317 306 309 274 206 201 198 225 234 246 268 280 266 275 294 313 319 307 293 312 347 298 301 320 295 310 118 148 178 151 153 143 107
308 307 313 311 308 303 288 256 173 196 224 282 291 334 235 195 144 203 212 219 225 244 267 262 243 268 24 320 296 298 299 299 291 300 300 65 32 89 133 121 31 186 153 149
304 304 305 311 306 252 245 2 12 211 217 254 277 251 156 172 177 199 187 191 206 223 236 255 274 267 220 252 266 285 284 302 321 331 0 336 345 283 246 201 189 134 119 130
306 302 301 304 302 251 263 222 210 269 254 260 273 266 157 188 193 189 185 176 208 190 244 214 223 235 204 251 263 282 287 332 331 323 318 301 282 280 264 268 141 139 126 144
305 305 304 262 227 225 71 118 172 219 281 288 268 277 329 179 231 211 157 227 197 210 207 250 248 217 217 216 212 243 260 261 279 304 301 293 275 265 259 215 140 182 157 158
308 282 216 163 0 135 161 175 186 204 220 229 256 282 274 252 218 184 187 193 239 203 201 206 225 239 245 243 233 130 54 321 245 292 292 295 269 252 276 176 168 160 159 201
350 346 345 317 200 244 220 233 215 191 215 221 242 245 275 261 247 343 321 190 265 237 210 222 220 220 62 69 77 67 119 260 280 274 272 301 338 281 71 58 32 3 119 113
280 292 286 276 251 236 228 231 220 217 251 208 216 213 226 315 339 268 50 354 30 259 355 119 250 107 37 91 61 81 351 359 315 270 76 64 43 39 46 116 119 205 15 312
257 201 251 240 253 311 235 209 193 227 340 292 277 273 284 177 257 249 151 200 220 174 251 237 81 118 98 69 92 47 2 65 54 49 50 59 59 49 11 5 152 175 196 228
271 229 242 255 221 238 254 321 358 327 43 360 300 270 4 278 313 345 19 276 310 198 208 188 109 116 111 97 94 104 76 76 82 60 52 34 12 11 354 331 336 346 330 307
271 285 244 222 254 204 270 295 297 10 3 10 330 258 210 180 171 255 101 278 232 233 275 108 122 134 135 103 81 81 71 64 52 35 37 27 8 348 332 337 330 313 292 284
247 254 266 319 303 1 347 26 321 11 15 326 105 328 282 197 223 202 207 254 354 51 34 117 130 119 108 113 101 97 88 75 60 55 50 352 360 331 329 320 303 304 315 316
238 251 298 289 287 292 228 311 346 331 308 30 324 240 162 286 226 211 354 41 84 312 105 121 121 114 110 112 125 107 115 107 75 27 23 331 281 303 338 315 315 307 280 294